Regional Weather Roundup
Issued by NWS Sioux Falls, SD

Home | Current Version | Previous Version | Text Only | Print | Product List | Glossary Off
Versions: 1 2 3 4 5 6 7 8 9 10 11 12 13 14 15 16 17 18 19 20 21 22 23 24 25 26 27 28 29 30 31 32 33 34 35 36 37 38 39 40 41 42 43 44 45 46 47 48 49 50

000
ASUS43 KFSD 291810
RWRFSD

WEATHER ROUNDUP FOR SE SOUTH DAKOTA/SW MINNESOTA/NW IOWA
NATIONAL WEATHER SERVICE SIOUX FALLS SD
100 PM CDT FRI APR 29 2016

NOTE: "FAIR" INDICATES FEW OR NO CLOUDS BELOW 12,000 FEET WITH NO
SIGNIFICANT WEATHER AND OR OBSTRUCTIONS TO VISIBILITY.


SDZ038>040-050-052>070-291900-
SOUTHEAST SOUTH DAKOTA

CITY           SKY/WX    TMP DP  RH WIND       PRES   REMARKS
BROOKINGS      CLOUDY    47  38  71 E10       30.13R
CHAMBERLAIN    CLOUDY    46  40  80 E9G16     30.11S
6HR MIN TEMP:  40; 6HR MAX TEMP:  46;

HURON          CLOUDY    52  38  58 E15G23    30.11F
6HR MIN TEMP:  37; 6HR MAX TEMP:  53;

MADISON        MOCLDY    46  45  93 E20       30.14R
MITCHELL       CLOUDY    48  41  76 E15       30.13S
6HR MIN TEMP:  40; 6HR MAX TEMP:  49;

SIOUX FALLS    CLOUDY    46  39  76 E15       30.13F
6HR MIN TEMP:  39; 6HR MAX TEMP:  48;

WINNER         CLOUDY    42  37  82 NE13      30.10R
YANKTON        CLOUDY    43  37  81 E13       30.11F
$$

MNZ071-072-080-081-089-090-097-098-291900-
SOUTHWEST MINNESOTA

CITY           SKY/WX    TMP DP  RH WIND       PRES   REMARKS
FAIRMONT       PTSUNNY   48  37  66 NE10G16   30.13F
JACKSON        CLOUDY    48  37  66 NE13      30.14S
LUVERNE        CLOUDY    46  37  71 E15G21    30.14F
MARSHALL       CLOUDY    49  40  71 NE10      30.15S
6HR MIN TEMP:  37; 6HR MAX TEMP:  49;

MONTEVIDEO     MOSUNNY   55  43  62 E9G16     30.16F
PIPESTONE      CLOUDY    48  37  66 E10G18    30.13S
REDWOOD FALLS  PTSUNNY   52  38  58 NE10      30.14F
TRACY          CLOUDY    49  41  72 NE16      30.15S
WINDOM         PTSUNNY   48  39  71 NE10      30.14F
WORTHINGTON    CLOUDY    46  37  71 NE17      30.13F
$$

IAZ001>003-012>014-020>022-031-032-NEZ013-014-SDZ071-291900-
NORTHWEST IOWA

CITY           SKY/WX    TMP DP  RH WIND       PRES   REMARKS
CHEROKEE       CLOUDY    44  41  89 E14       30.12F
DENISON        CLOUDY    45  41  87 E10       30.07F
ESTHERVILLE    CLOUDY    46  39  76 NE14      30.13F
LE MARS        CLOUDY    43  39  87 E8        30.13F
ORANGE CITY    CLOUDY    45  39  81 E8G16     30.12F
SHELDON        CLOUDY    45  39  81 E14G20    30.12F
SIOUX CITY     CLOUDY    47  39  74 E8        30.11F
6HR MIN TEMP:  44; 6HR MAX TEMP:  47;

SPENCER        CLOUDY    45  37  73 E14       30.13F
6HR MIN TEMP:  40; 6HR MAX TEMP:  45;

STORM LAKE     CLOUDY    43  39  87 E14       30.11F
$$

ABBREVIATIONS USED IN REMARKS
   TC - TEMPERATURE IN CELSIUS
  WCI - WIND CHILL INDEX
   HX - HEAT INDEX
  VSB - VISIBILITY





USA.gov is the U.S. government's official web portal to all federal, state and local government web resources and services.